Weather History for KSNA - February, 2011

Change the Weather History Date:

Thursday, February 17, 2011

  Actual Average Record
Temperature  
Mean Temperature 53 °F 57 °F  
Max Temperature 61 °F 66 °F 89 °F (2007)
Min Temperature 45 °F 49 °F 45 °F (2011)
Degree Days  
Heating Degree Days 12 8  
Month to date heating degree days 131 136  
Since 1 July heating degree days 610 828  
Cooling Degree Days 0 0  
Month to date cooling degree days 0 0  
Year to date cooling degree days 4 5  
Growing Degree Days 2 (Base 50)    
Moisture  
Dew Point 39 °F    
Average Humidity 63    
Maximum Humidity 89    
Minimum Humidity 36    
Precipitation  
Precipitation 0.00 in 0.13 in 0.23 in (2002)
Month to date precipitation 0.14 1.59  
Year to date precipitation 0.93 4.50  
Since 1 July precipitation 13.58  
Snow  
Snow 0.00 in - - ()
Month to date snowfall 0.0  
Year to date snowfall 0.0  
Since 1 July snowfall 0.0  
Snow Depth 0.00 in    
Sea Level Pressure  
Sea Level Pressure 30.07 in    
Wind  
Wind Speed 2 mph (SSW)    
Max Wind Speed 12 mph    
Max Gust Speed 18 mph    
Visibility 10 miles    
Events      
T = Trace of Precipitation, MM = Missing Value Source: NWS Daily Summary

Daily Weather History Graph

Daily Weather History Graph

Search for Another Location

Airport or City:

Trip Planner

Search our weather history database for the weather conditions in past years. The results will help you decide how hot, cold, wet, or windy it might be!

Date:

Astronomy

Feb. 17, 2011 Rise Set
Actual Time 6:33 AM PST 5:37 PM PST
Civil Twilight 6:08 AM PST 6:02 PM PST
Nautical Twilight 5:39 AM PST 6:32 PM PST
Astronomical Twilight 5:10 AM PST 7:01 PM PST
Moon 5:19 PM PST (2/17) 5:50 AM PST (2/17)
Length of Visible Light 11h 54m
Length of Day
11h 03m
Full, 100% of the Moon is Illuminated
Feb 17
Full
Feb 18
Full
Feb 24
Last Quarter
Mar 4
New
Mar 12
First Quarter

Hourly Weather History & Observations

Time (PST) Temp. Dew Point Humidity Pressure Visibility Wind Dir Wind Speed Gust Speed Precip Events Conditions
1:53 AM 48.0 °F 43.0 °F 83% 30.08 in 10.0 mi NNE 3.5 mph - N/A   Partly Cloudy
3:53 AM 46.9 °F 42.1 °F 83% 30.07 in 10.0 mi Calm Calm - N/A   Clear
4:53 AM 45.0 °F 41.0 °F 86% 30.07 in 10.0 mi Calm Calm - N/A   Clear
5:53 AM 45.0 °F 41.0 °F 86% 30.07 in 10.0 mi Calm Calm - N/A   Partly Cloudy
6:53 AM 46.0 °F 42.1 °F 86% 30.09 in 10.0 mi Calm Calm - N/A   Partly Cloudy
7:53 AM 48.9 °F 42.1 °F 77% 30.11 in 10.0 mi Variable 4.6 mph - N/A   Partly Cloudy
8:53 AM 53.1 °F 39.9 °F 61% 30.13 in 10.0 mi Calm Calm - N/A   Scattered Clouds
9:53 AM 55.9 °F 37.0 °F 49% 30.13 in 10.0 mi Calm Calm - N/A   Scattered Clouds
10:53 AM 57.0 °F 36.0 °F 45% 30.13 in 10.0 mi Calm Calm - N/A   Scattered Clouds
11:53 AM 59.0 °F 35.1 °F 41% 30.11 in 10.0 mi Calm Calm - N/A   Clear
12:53 PM 60.1 °F 33.1 °F 36% 30.08 in 10.0 mi Calm Calm - N/A   Scattered Clouds
1:53 PM 60.1 °F 34.0 °F 38% 30.06 in 10.0 mi SW 9.2 mph - N/A   Partly Cloudy
2:53 PM 59.0 °F 33.1 °F 38% 30.05 in 10.0 mi SSW 10.4 mph - N/A   Scattered Clouds
3:53 PM 57.9 °F 35.1 °F 42% 30.05 in 10.0 mi SSW 10.4 mph - N/A   Scattered Clouds
4:53 PM 57.2 °F 35.6 °F 44% 30.04 in 10.0 mi WSW 5.8 mph - N/A   Scattered Clouds
5:53 PM 55.0 °F 39.0 °F 55% 30.05 in 10.0 mi SW 5.8 mph - N/A   Scattered Clouds
6:53 PM 54.0 °F 39.9 °F 59% 30.06 in 10.0 mi SSW 3.5 mph - N/A   Scattered Clouds
7:53 PM 55.0 °F 39.9 °F 57% 30.05 in 10.0 mi Calm Calm - N/A   Clear
8:53 PM 54.0 °F 39.9 °F 59% 30.05 in 10.0 mi Calm Calm - N/A   Partly Cloudy
9:53 PM 53.1 °F 41.0 °F 64% 30.05 in 10.0 mi East 3.5 mph - N/A   Clear
10:53 PM 53.1 °F 41.0 °F 64% 30.04 in 10.0 mi Variable 4.6 mph - N/A   Partly Cloudy
11:53 PM 52.0 °F 39.9 °F 63% 30.04 in 10.0 mi ESE 4.6 mph - N/A   Clear